| time (UTC) | temp F | wind direction | speed knots | gust knots | rain 1hr in | rain 24hr in | rain mn in | humidity % | barometer mb |
| 20260506110531 | 63 | 236 | 0.9 | 5.2 | 0.00 | 0.76 | 0.01 | 70 | 1007.2 |
| 20260506105531 | 66 | 259 | 1.7 | 2.6 | 0.00 | 0.76 | 0.01 | 64 | 1007.2 |
| 20260506104532 | 65 | 253 | 1.7 | 6.1 | 0.00 | 0.76 | 0.01 | 68 | 1007.5 |
| 20260506101533 | 63 | 255 | 0.9 | 2.6 | 0.00 | 0.76 | 0.01 | 69 | 1007.5 |
| 20260506100534 | 63 | 281 | 1.7 | 5.2 | 0.00 | 0.76 | 0.01 | 72 | 1007.5 |
| 20260506095534 | 63 | 289 | 2.6 | 6.1 | 0.00 | 0.76 | 0.01 | 70 | 1007.5 |
| 20260506094534 | 64 | 260 | 1.7 | 7.0 | 0.00 | 0.76 | 0.01 | 70 | 1007.4 |
| 20260506092535 | 64 | 302 | 2.6 | 6.1 | 0.00 | 0.76 | 0.01 | 71 | 1007.4 |
| 20260506091535 | 63 | 258 | 1.7 | 5.2 | 0.00 | 0.76 | 0.01 | 77 | 1007.5 |
| 20260506090536 | 62 | 218 | 0.9 | 2.6 | 0.00 | 0.76 | 0.01 | 79 | 1007.5 |
| 20260506085536 | 62 | 297 | 0.9 | 4.3 | 0.00 | 0.76 | 0.01 | 80 | 1007.5 |
| 20260506081522 | 59 | 280 | 1.7 | 6.1 | 0.00 | 0.76 | 0.01 | 86 | 1007.1 |
| 20260506071525 | 57 | 241 | 0.9 | 4.3 | 0.00 | 0.76 | 0.01 | 94 | 1007.0 |
| 20260506070525 | 55 | 272 | 0.9 | 4.3 | 0.00 | 0.76 | 0.01 | 99 | 1007.1 |
| 20260506041516 | 53 | 262 | 0.0 | 1.7 | 0.00 | 0.76 | 0.01 | 99 | 1007.1 |
| 20260506035517 | 53 | 238 | 0.0 | 0.9 | 0.00 | 0.76 | 0.01 | 99 | 1007.1 |
| 20260506024520 | 53 | 263 | 0.0 | 2.6 | 0.00 | 0.77 | 0.01 | 99 | 1007.1 |
| 20260506023520 | 53 | 257 | 0.0 | 1.7 | 0.00 | 0.78 | 0.01 | 99 | 1007.1 |
| 20260506021522 | 53 | 254 | 0.0 | 1.7 | 0.01 | 0.78 | 0.01 | 99 | 1007.1 |
| 20260506020522 | 53 | 260 | 0.0 | 0.9 | 0.01 | 0.78 | 0.01 | 99 | 1007.2 |
| 20260506012525 | 53 | 241 | 0.0 | 1.7 | 0.00 | 0.79 | 0.00 | 99 | 1007.3 |
| 20260506010524 | 53 | 263 | 0.0 | 0.9 | 0.00 | 0.79 | 0.00 | 99 | 1007.4 |
| 20260506005524 | 53 | 253 | 0.0 | 1.7 | 0.00 | 0.79 | 0.00 | 99 | 1007.5 |
| 20260506003527 | 53 | 260 | 0.0 | 0.9 | 0.00 | 0.79 | 0.00 | 99 | 1007.7 |
| 20260506000528 | 54 | 265 | 0.0 | 1.7 | 0.00 | 0.79 | 0.00 | 99 | 1007.9 |
| 20260505235527 | 54 | 251 | 0.0 | 1.7 | 0.00 | 0.79 | 0.00 | 99 | 1008.0 |
| 20260505233528 | 53 | 255 | 0.0 | 0.9 | 0.00 | 0.79 | 0.00 | 99 | 1008.0 |
| 20260505232529 | 53 | 268 | 0.0 | 0.9 | 0.00 | 0.79 | 0.00 | 99 | 1008.0 |
| 20260505231529 | 53 | 258 | 0.0 | 0.9 | 0.00 | 0.79 | 0.00 | 99 | 1008.0 |
| 20260505224530 | 53 | 0.0 | 0.9 | 0.00 | 0.79 | 0.00 | 99 | 1007.8 | |
| 20260505223530 | 53 | 269 | 0.0 | 1.7 | 0.00 | 0.79 | 0.00 | 99 | 1007.8 |
| 20260505215532 | 54 | 274 | 0.0 | 0.9 | 0.00 | 0.79 | 0.79 | 99 | 1008.0 |
| 20260505214533 | 54 | 300 | 0.0 | 0.9 | 0.00 | 0.79 | 0.79 | 99 | 1008.0 |
| 20260505212533 | 54 | 268 | 0.0 | 0.9 | 0.01 | 0.79 | 0.79 | 99 | 1008.2 |
| 20260505202536 | 54 | 0.0 | 1.7 | 0.00 | 0.78 | 0.78 | 99 | 1008.1 | |
| 20260505201536 | 54 | 280 | 0.9 | 4.3 | 0.00 | 0.78 | 0.78 | 99 | 1008.0 |
| 20260505192538 | 55 | 0.0 | 0.0 | 0.15 | 0.78 | 0.78 | 99 | 1007.9 | |
| 20260505181541 | 55 | 16 | 0.0 | 1.7 | 0.54 | 0.62 | 0.62 | 99 | 1007.4 |
| 20260505172543 | 56 | 280 | 3.5 | 8.7 | 0.13 | 0.17 | 0.17 | 96 | 1007.5 |
| 20260505171544 | 57 | 286 | 4.3 | 13.0 | 0.04 | 0.08 | 0.08 | 93 | 1007.0 |
| 20260505165545 | 62 | 272 | 0.9 | 2.6 | 0.00 | 0.04 | 0.04 | 83 | 1006.6 |
| 20260505162545 | 63 | 297 | 0.0 | 0.9 | 0.00 | 0.04 | 0.04 | 79 | 1006.6 |
| 20260505151548 | 65 | 55 | 2.6 | 7.0 | 0.00 | 0.04 | 0.04 | 67 | 1006.9 |
| 20260505124555 | 76 | 269 | 0.9 | 4.3 | 0.00 | 0.04 | 0.04 | 48 | 1007.8 |